User: anonymous   Login
Location: Unspecified
(0.0000°N, 0.0000°E)
Time: 08:05:18
(UTC+00:00)
Language:

UWE-3 - Orbit

View from above orbital plane
View from above orbital plane
View from above satellite
View from above satellite

Ground track
Ground track

The orbit data is extracted from the following two-line orbital elements,

1 39446U 13066AG  19345.52309225 +.00000155 +00000-0 +27194-4 0  9990
2 39446 097.5869 340.8580 0069321 205.2118 154.5705 14.78462789324653
Epoch (UTC): 11 December 2019 12:33:15
Eccentricity: 0.0069321
inclination: 97.5869°
perigee height: 585 km
apogee height: 683 km
right ascension of ascending node: 340.8580°
argument of perigee: 205.2118°
revolutions per day: 14.78462789
mean anomaly at epoch: 154.5705°
orbit number at epoch: 32465

The dashed part of the orbit path shows where the satellite is in the earth's shadow,  

DLR